TimePDT,TemperatureF,Dew PointF,Humidity,Sea Level PressureIn,VisibilityMPH,Wind Direction,Wind SpeedMPH,Gust SpeedMPH,PrecipitationIn,Events,Conditions,WindDirDegrees,DateUTC
12:53 AM,70.0,55.9,61,29.95,10.0,NW,15.0,-,N/A,,Clear,310,2013-07-17 07:53:00
1:53 AM,66.9,55.0,66,29.96,10.0,NW,12.7,-,N/A,,Clear,310,2013-07-17 08:53:00
2:53 AM,64.9,55.0,70,29.97,10.0,NW,9.2,-,N/A,,Clear,320,2013-07-17 09:53:00
3:53 AM,63.0,54.0,72,29.97,10.0,NW,9.2,-,N/A,,Clear,320,2013-07-17 10:53:00
4:53 AM,62.1,53.1,72,29.99,10.0,NNW,4.6,-,N/A,,Clear,340,2013-07-17 11:53:00
5:53 AM,61.0,54.0,78,30.01,10.0,NW,6.9,-,N/A,,Clear,310,2013-07-17 12:53:00
6:53 AM,61.0,54.0,78,30.03,10.0,West,5.8,-,N/A,,Clear,280,2013-07-17 13:53:00
7:53 AM,64.0,54.0,70,30.05,10.0,WNW,9.2,-,N/A,,Clear,300,2013-07-17 14:53:00
8:53 AM,68.0,53.1,59,30.06,10.0,NW,9.2,-,N/A,,Clear,320,2013-07-17 15:53:00
9:53 AM,71.1,53.1,53,30.06,10.0,NW,5.8,-,N/A,,Clear,320,2013-07-17 16:53:00
10:53 AM,75.9,53.1,45,30.05,10.0,NW,5.8,-,N/A,,Clear,320,2013-07-17 17:53:00
11:53 AM,82.0,53.1,37,30.05,10.0,WNW,8.1,-,N/A,,Clear,290,2013-07-17 18:53:00
12:53 PM,84.0,50.0,31,30.04,10.0,Variable,4.6,-,N/A,,Clear,0,2013-07-17 19:53:00
1:53 PM,88.0,50.0,27,30.02,10.0,NW,6.9,-,N/A,,Clear,310,2013-07-17 20:53:00
2:53 PM,90.0,48.9,24,30.01,10.0,NNW,8.1,-,N/A,,Clear,330,2013-07-17 21:53:00
3:53 PM,91.9,46.0,21,29.98,10.0,North,6.9,-,N/A,,Clear,350,2013-07-17 22:53:00
4:53 PM,93.9,48.9,21,29.96,10.0,NW,6.9,-,N/A,,Clear,310,2013-07-17 23:53:00
5:53 PM,93.0,50.0,23,29.94,10.0,NNW,6.9,-,N/A,,Clear,340,2013-07-18 00:53:00
6:53 PM,91.9,50.0,24,29.94,10.0,North,5.8,-,N/A,,Clear,350,2013-07-18 01:53:00
7:53 PM,88.0,52.0,29,29.95,10.0,NW,9.2,-,N/A,,Clear,310,2013-07-18 02:53:00
8:53 PM,84.9,52.0,32,29.96,10.0,WNW,8.1,-,N/A,,Clear,300,2013-07-18 03:53:00
9:53 PM,82.9,55.0,38,29.97,10.0,NW,8.1,-,N/A,,Clear,310,2013-07-18 04:53:00
10:53 PM,80.1,55.9,43,29.98,10.0,NW,10.4,-,N/A,,Clear,310,2013-07-18 05:53:00
11:53 PM,75.9,55.9,50,29.98,10.0,NW,9.2,-,N/A,,Clear,320,2013-07-18 06:53:00